Regional Weather Roundup
Issued by NWS Little Rock, AR

Home | Current Version | Previous Version | Text Only | Print | Product List | Glossary Off
Versions: 1 2 3 4 5 6 7 8 9 10 11 12 13 14 15 16 17 18 19 20 21 22 23 24 25 26 27 28 29 30 31 32 33 34 35 36 37 38 39 40 41 42 43 44 45 46 47 48 49 50

000
ASUS44 KLZK 310105
RWRLZK

WEATHER ROUNDUP FOR ARKANSAS
NATIONAL WEATHER SERVICE LITTLE ROCK AR
800 PM CDT WED JUL 30 2014

NOTE: "FAIR" INDICATES FEW OR NO CLOUDS BELOW 12,000 FEET WITH NO
SIGNIFICANT WEATHER AND/OR OBSTRUCTIONS TO VISIBILITY.

ARZ001-003-010-029-310200-
NORTHWEST ARKANSAS

CITY           SKY/WX    TMP DP  RH WIND       PRES   REMARKS
FAYETTEVILLE   LGT RAIN  67  67 100 E6        30.07S
FORT SMITH     LGT RAIN  71  69  93 E7        30.02F FOG
HARRISON       LGT RAIN  66  65  96 CALM      30.09F
BENTONVILLE    CLOUDY    64  63  94 E8        30.09S
ROGERS         RAIN      65  63  93 E9        30.09F VSB 3/4
SILOAM SPGS    CLOUDY    64  59  82 E6        30.08S
HIGHFILL       RAIN      65  32  29 E7        30.08S
SPRINGDALE     LGT RAIN  66  64  94 E8        30.10S FOG
$$

ARZ004-005-016-310200-
NORTH CENTRAL ARKANSAS

CITY           SKY/WX    TMP DP  RH WIND       PRES   REMARKS
BATESVILLE     CLOUDY    68  64  88 SW3       30.07F
FLIPPIN        CLOUDY    68  66  94 CALM      30.08S
MTN HOME       LGT RAIN  68  67  96 CALM      30.07S FOG
$$

ARZ040-041-310200-
WEST CENTRAL ARKANSAS

CITY           SKY/WX    TMP DP  RH WIND       PRES   REMARKS
MENA           CLOUDY    70  70 100 CALM      30.06S
MOUNT IDA      CLOUDY    67  66  97 CALM      30.05F
$$

ARZ009-017-025-026-028-310200-
NORTHEAST ARKANSAS

CITY           SKY/WX    TMP DP  RH WIND       PRES   REMARKS
JONESBORO      CLOUDY    73  62  68 NW7       30.06S
NEWPORT        LGT RAIN  71  66  84 SW5       30.08S
WALNUT RIDGE   CLOUDY    72  63  73 W5        30.06F
BLYTHEVILLE    CLOUDY    77  61  57 CALM      30.06S
$$

ARZ022-023-033-042-044-310200-
CENTRAL ARKANSAS

CITY           SKY/WX    TMP DP  RH WIND       PRES   REMARKS
LITTLE ROCK    LGT RAIN  70  63  78 CALM      30.08F
N LITTLE ROCK  CLOUDY    68  68  99 CALM      30.08F
JACKSONVILLE   LGT RAIN  69  65  86 W1        30.08S
SEARCY         CLOUDY    69  65  87 W5        30.09S
HOT SPRINGS    LGT RAIN  68  64  87 CALM      30.09S
RUSSELLVILLE   LGT RAIN  69  66  90 CALM      30.07F
CLINTON        LGT RAIN  70  70 100 CALM      30.09S
$$

ARZ036-310200-
EAST ARKANSAS

CITY           SKY/WX    TMP DP  RH WIND       PRES   REMARKS
WEST MEMPHIS   CLOUDY    73  67  81 CALM      30.05S
$$

ARZ050-053-066-070-073-310200-
SOUTHWEST ARKANSAS

CITY           SKY/WX    TMP DP  RH WIND       PRES   REMARKS
ARKADELPHIA    LGT RAIN  71  70  97 NE3       30.08S FOG
CAMDEN         LGT RAIN  72  66  83 NE5       30.06S
TEXARKANA      CLOUDY    70  69  97 E6        30.03F
EL DORADO      LGT RAIN  72  70  93 E8        30.05F
DE QUEEN       LGT RAIN  70  68  93 E7        30.01F
$$

ARZ056-057-069-310200-
SOUTHEAST ARKANSAS

CITY           SKY/WX    TMP DP  RH WIND       PRES   REMARKS
PINE BLUFF     LGT RAIN  71  67  87 CALM      30.07F
STUTTGART      CLOUDY    72  64  78 W7        30.08S
MONTICELLO     CLOUDY    72  65  78 NE5       30.06F

$$




USA.gov is the U.S. government's official web portal to all federal, state and local government web resources and services.